Time,TemperatureF,DewpointF,PressureIn,WindDirection,WindDirectionDegrees,WindSpeedMPH,WindSpeedGustMPH,Humidity,HourlyPrecipIn,Conditions,Clouds,dailyrainin,SolarRadiationWatts/m^2,SoftwareType,DateUTC
2013-08-10 00:43:00,71.0,41.0,-100.00,North,2,5.0,7.0,34,0.00,,,0.00,0.000000,,2013-08-10 07:43:00,
2013-08-10 00:52:00,71.0,41.0,-100.00,North,2,5.0,7.0,34,0.00,,,0.00,0.000000,,2013-08-10 07:52:00,
2013-08-10 01:21:00,70.0,40.0,-100.00,NNE,17,7.0,9.0,34,0.00,,,0.00,0.000000,,2013-08-10 08:21:00,
2013-08-10 01:32:00,70.0,40.0,-100.00,NNE,17,7.0,9.0,34,0.00,,,0.00,0.000000,,2013-08-10 08:32:00,
2013-08-10 01:43:00,70.0,40.0,-100.00,NNE,17,7.0,9.0,34,0.00,,,0.00,0.000000,,2013-08-10 08:43:00,
2013-08-10 01:52:00,70.0,40.0,-100.00,NNE,17,7.0,9.0,34,0.00,,,0.00,0.000000,,2013-08-10 08:52:00,
2013-08-10 02:21:00,68.0,40.0,-100.00,NNE,25,4.0,9.0,36,0.00,,,0.00,0.000000,,2013-08-10 09:21:00,
2013-08-10 02:32:00,68.0,40.0,-100.00,NNE,25,4.0,9.0,36,0.00,,,0.00,0.000000,,2013-08-10 09:32:00,
2013-08-10 02:43:00,68.0,40.0,-100.00,NNE,25,4.0,9.0,36,0.00,,,0.00,0.000000,,2013-08-10 09:43:00,
2013-08-10 02:52:00,68.0,40.0,-100.00,NNE,25,4.0,9.0,36,0.00,,,0.00,0.000000,,2013-08-10 09:52:00,
2013-08-10 03:33:00,67.0,39.0,-100.00,North,5,9.0,11.0,36,0.00,,,0.00,0.000000,,2013-08-10 10:33:00,
2013-08-10 03:43:00,67.0,39.0,-100.00,North,5,9.0,11.0,36,0.00,,,0.00,0.000000,,2013-08-10 10:43:00,
2013-08-10 03:52:00,67.0,39.0,-100.00,North,5,9.0,11.0,36,0.00,,,0.00,0.000000,,2013-08-10 10:52:00,
2013-08-10 07:22:00,62.0,35.0,-100.00,North,6,5.0,13.0,37,-99.99,,,0.00,9.000000,,2013-08-10 14:22:00,
2013-08-10 07:32:00,62.0,35.0,-100.00,North,6,5.0,13.0,37,-99.99,,,0.00,9.000000,,2013-08-10 14:32:00,
2013-08-10 07:42:00,62.0,35.0,-100.00,North,6,5.0,13.0,37,-99.99,,,0.00,9.000000,,2013-08-10 14:42:00,
2013-08-10 07:53:00,62.0,35.0,-100.00,North,6,5.0,13.0,37,-99.99,,,0.00,9.000000,,2013-08-10 14:53:00,
2013-08-10 08:22:00,65.0,36.0,-100.00,NE,41,0.0,11.0,34,0.00,,,0.00,73.000000,,2013-08-10 15:22:00,
2013-08-10 08:33:00,65.0,36.0,-100.00,NE,41,0.0,11.0,34,0.00,,,0.00,73.000000,,2013-08-10 15:33:00,
2013-08-10 08:43:00,65.0,36.0,-100.00,NE,41,0.0,11.0,34,0.00,,,0.00,73.000000,,2013-08-10 15:43:00,
2013-08-10 08:52:00,65.0,36.0,-100.00,NE,41,0.0,11.0,34,0.00,,,0.00,73.000000,,2013-08-10 15:52:00,
2013-08-10 09:43:00,74.0,38.0,-100.00,SW,217,0.0,5.0,27,0.00,,,0.00,435.000000,,2013-08-10 16:43:00,
2013-08-10 09:53:00,74.0,38.0,-100.00,SW,217,0.0,5.0,27,0.00,,,0.00,435.000000,,2013-08-10 16:53:00,
2013-08-10 10:22:00,75.0,41.0,-100.00,South,186,7.0,12.0,29,0.00,,,0.00,653.000000,,2013-08-10 17:22:00,
2013-08-10 10:33:00,75.0,41.0,-100.00,South,186,7.0,12.0,29,0.00,,,0.00,653.000000,,2013-08-10 17:33:00,
2013-08-10 10:43:00,75.0,41.0,-100.00,South,186,7.0,12.0,29,0.00,,,0.00,653.000000,,2013-08-10 17:43:00,
2013-08-10 10:52:00,75.0,41.0,-100.00,South,186,7.0,12.0,29,0.00,,,0.00,653.000000,,2013-08-10 17:52:00,
2013-08-10 11:23:00,78.0,41.0,-100.00,South,172,13.0,17.0,27,0.00,,,0.00,840.000000,,2013-08-10 18:23:00,
2013-08-10 11:32:00,78.0,41.0,-100.00,South,172,13.0,17.0,27,0.00,,,0.00,840.000000,,2013-08-10 18:32:00,
2013-08-10 11:43:00,78.0,41.0,-100.00,South,172,13.0,17.0,27,0.00,,,0.00,840.000000,,2013-08-10 18:43:00,
2013-08-10 11:52:00,78.0,41.0,-100.00,South,172,13.0,17.0,27,0.00,,,0.00,840.000000,,2013-08-10 18:52:00,
2013-08-10 12:44:00,79.0,40.0,-100.00,SSE,167,14.0,22.0,25,0.00,,,0.00,975.000000,,2013-08-10 19:44:00,
2013-08-10 12:53:00,79.0,40.0,-100.00,SSE,167,14.0,22.0,25,0.00,,,0.00,975.000000,,2013-08-10 19:53:00,
2013-08-10 13:22:00,83.0,44.0,-100.00,SSE,166,19.0,25.0,25,0.00,,,0.00,1049.000000,,2013-08-10 20:22:00,
2013-08-10 13:33:00,83.0,44.0,-100.00,SSE,166,19.0,25.0,25,0.00,,,0.00,1049.000000,,2013-08-10 20:33:00,
2013-08-10 13:43:00,83.0,44.0,-100.00,SSE,166,19.0,25.0,25,0.00,,,0.00,1049.000000,,2013-08-10 20:43:00,
2013-08-10 13:53:00,83.0,44.0,-100.00,SSE,166,19.0,25.0,25,0.00,,,0.00,1049.000000,,2013-08-10 20:53:00,
2013-08-10 14:32:00,84.0,42.0,-100.00,South,186,17.0,26.0,23,0.00,,,0.00,1055.000000,,2013-08-10 21:32:00,
2013-08-10 14:42:00,84.0,42.0,-100.00,South,186,17.0,26.0,23,0.00,,,0.00,1055.000000,,2013-08-10 21:42:00,
2013-08-10 14:52:00,84.0,42.0,-100.00,South,186,17.0,26.0,23,0.00,,,0.00,1055.000000,,2013-08-10 21:52:00,
2013-08-10 15:43:00,88.0,42.0,-100.00,South,181,14.0,31.0,20,0.00,,,0.00,991.000000,,2013-08-10 22:43:00,
2013-08-10 15:52:00,88.0,42.0,-100.00,South,181,14.0,31.0,20,0.00,,,0.00,991.000000,,2013-08-10 22:52:00,
2013-08-10 16:22:00,87.0,40.0,-100.00,West,265,10.0,22.0,19,0.00,,,0.00,877.000000,,2013-08-10 23:22:00,
2013-08-10 16:32:00,87.0,40.0,-100.00,West,265,10.0,22.0,19,0.00,,,0.00,877.000000,,2013-08-10 23:32:00,
2013-08-10 16:43:00,87.0,40.0,-100.00,West,265,10.0,22.0,19,0.00,,,0.00,877.000000,,2013-08-10 23:43:00,
2013-08-10 16:53:00,87.0,40.0,-100.00,West,265,10.0,22.0,19,0.00,,,0.00,877.000000,,2013-08-10 23:53:00,
2013-08-10 17:22:00,86.0,39.0,-100.00,NW,309,17.0,24.0,19,0.00,,,0.00,699.000000,,2013-08-11 00:22:00,
2013-08-10 17:32:00,86.0,39.0,-100.00,NW,309,17.0,24.0,19,0.00,,,0.00,699.000000,,2013-08-11 00:32:00,
2013-08-10 17:42:00,86.0,39.0,-100.00,NW,309,17.0,24.0,19,0.00,,,0.00,699.000000,,2013-08-11 00:42:00,
2013-08-10 17:52:00,86.0,39.0,-100.00,NW,309,17.0,24.0,19,0.00,,,0.00,699.000000,,2013-08-11 00:52:00,
2013-08-10 18:22:00,85.0,38.0,-100.00,NW,308,18.0,25.0,19,0.00,,,0.00,486.000000,,2013-08-11 01:22:00,
2013-08-10 18:32:00,85.0,38.0,-100.00,NW,308,18.0,25.0,19,0.00,,,0.00,486.000000,,2013-08-11 01:32:00,
2013-08-10 18:43:00,85.0,38.0,-100.00,NW,308,18.0,25.0,19,0.00,,,0.00,486.000000,,2013-08-11 01:43:00,
2013-08-10 18:53:00,85.0,38.0,-100.00,NW,308,18.0,25.0,19,0.00,,,0.00,486.000000,,2013-08-11 01:53:00,
2013-08-10 19:22:00,80.0,40.0,-100.00,WNW,299,20.0,29.0,24,0.00,,,0.00,252.000000,,2013-08-11 02:22:00,
2013-08-10 19:32:00,80.0,40.0,-100.00,WNW,299,20.0,29.0,24,0.00,,,0.00,252.000000,,2013-08-11 02:32:00,
2013-08-10 19:43:00,80.0,40.0,-100.00,WNW,299,20.0,29.0,24,0.00,,,0.00,252.000000,,2013-08-11 02:43:00,
2013-08-10 19:54:00,80.0,40.0,-100.00,WNW,299,20.0,29.0,24,0.00,,,0.00,252.000000,,2013-08-11 02:54:00,
2013-08-10 20:25:00,76.0,41.0,-100.00,SW,221,4.0,31.0,29,0.00,,,0.00,31.000000,,2013-08-11 03:25:00,
2013-08-10 20:34:00,76.0,41.0,-100.00,SW,221,4.0,31.0,29,0.00,,,0.00,31.000000,,2013-08-11 03:34:00,
2013-08-10 20:43:00,76.0,41.0,-100.00,SW,221,4.0,31.0,29,0.00,,,0.00,31.000000,,2013-08-11 03:43:00,
2013-08-10 20:53:00,76.0,41.0,-100.00,SW,221,4.0,31.0,29,0.00,,,0.00,31.000000,,2013-08-11 03:53:00,
2013-08-10 21:22:00,75.0,43.0,-100.00,West,263,9.0,17.0,32,0.00,,,0.00,0.000000,,2013-08-11 04:22:00,
2013-08-10 21:32:00,75.0,43.0,-100.00,West,263,9.0,17.0,32,0.00,,,0.00,0.000000,,2013-08-11 04:32:00,
2013-08-10 21:42:00,75.0,43.0,-100.00,West,263,9.0,17.0,32,0.00,,,0.00,0.000000,,2013-08-11 04:42:00,
2013-08-10 21:53:00,75.0,43.0,-100.00,West,263,9.0,17.0,32,0.00,,,0.00,0.000000,,2013-08-11 04:53:00,
2013-08-10 22:23:00,72.0,43.0,-100.00,WSW,257,3.0,16.0,35,0.00,,,0.00,0.000000,,2013-08-11 05:23:00,
2013-08-10 22:34:00,72.0,43.0,-100.00,WSW,257,3.0,16.0,35,0.00,,,0.00,0.000000,,2013-08-11 05:34:00,
2013-08-10 22:44:00,72.0,43.0,-100.00,WSW,257,3.0,16.0,35,0.00,,,0.00,0.000000,,2013-08-11 05:44:00,
2013-08-10 22:52:00,72.0,43.0,-100.00,WSW,257,3.0,16.0,35,0.00,,,0.00,0.000000,,2013-08-11 05:52:00,
2013-08-10 23:34:00,71.0,45.0,-100.00,SSE,168,0.0,9.0,40,0.00,,,0.00,0.000000,,2013-08-11 06:34:00,
2013-08-10 23:46:00,71.0,45.0,-100.00,SSE,168,0.0,9.0,40,0.00,,,0.00,0.000000,,2013-08-11 06:46:00,
2013-08-10 23:53:00,71.0,45.0,-100.00,SSE,168,0.0,9.0,40,0.00,,,0.00,0.000000,,2013-08-11 06:53:00,